Home   Weather   Tórshavn   Past weeks

Flag for Faroe Islands Past Weather in Tórshavn, Faroe Islands — Yesterday and Last 2 Weeks

Now
52 °F

Broken clouds.


Feels Like: 47 °F
Forecast: 49 / 51 °F
Wind: 14 mph from South

Location: Soervaag / Vagar

Current Time: Sep 26, 2016 at 3:02:49 PM

Latest Report: Sep 26, 2016 at 1:50 PM


Visibility: N/A

Pressure: 29.71 "Hg

Humidity: 82%

Dew Point: 46 °F

Location of TórshavnLocation

Past Weather in Tórshavn — Graph

°F

Tórshavn Temperature Yesterday

Maximum temperature yesterday: 54 °F (at 11:20 AM)
Minimum temperature yesterday: 50 °F (at 1:20 AM)
Average temperature yesterday: 51 °F

High & Low Weather Summary for the Past Weeks

 TemperatureHumidityPressure
High57 °F (Sep 12, 6:20 AM)100% (Sep 11, 10:20 PM)30.15 "Hg (Sep 11, 10:20 PM)
Low45 °F (Sep 23, 7:25 AM)77% (Sep 14, 1:20 PM)29.18 "Hg (Sep 12, 7:21 AM)
Average52 °F94%29.71 "Hg
* Reported Sep 11 1:20 PM — Sep 26 1:50 PM, Tórshavn, Weather by CustomWeather, © 2016

Note: Actual official high and low records may vary slightly from our data, if they occured in-between our weather recording intervals... More about our weather records

Advertising

Tórshavn Weather History for the Previous 24 Hours

Scroll right to see more
 ConditionsComfort  
Time TempWeatherWind HumidityBarometerVisibility
1:50 PM
Mon, Sep 26
52 °FBroken clouds.14 mph82%29.71 "HgN/A
1:20 PM52 °FPartly sunny.14 mph82%29.71 "HgN/A
12:52 PM52 °FPartly sunny.13 mph77%29.71 "HgN/A
12:20 PM52 °FScattered clouds.16 mph82%29.71 "HgN/A
11:50 AM52 °FScattered clouds.17 mph88%29.68 "HgN/A
11:20 AM52 °FPassing clouds.17 mph88%29.68 "HgN/A
10:50 AM52 °FPartly sunny.13 mph88%29.68 "HgN/A
10:20 AM52 °FPartly sunny.18 mph88%29.68 "HgN/A
9:50 AM50 °FOvercast.13 mph88%29.68 "HgN/A
9:20 AM50 °FOvercast.10 mph94%29.65 "HgN/A
8:50 AM50 °FOvercast.12 mph88%29.65 "HgN/A
8:20 AM50 °FOvercast.17 mph88%29.62 "HgN/A
7:50 AM50 °FOvercast.17 mph88%29.62 "HgN/A
7:20 AM50 °FOvercast.17 mph88%29.59 "HgN/A
6:50 AM50 °FOvercast.18 mph94%29.59 "HgN/A
6:20 AM50 °FOvercast.17 mph94%29.56 "HgN/A
5:50 AM50 °FLow clouds.14 mph94%29.56 "HgN/A
5:20 AM50 °FSprinkles. Passing clouds.15 mph94%29.56 "HgN/A
4:50 AM50 °FPassing clouds.20 mph94%29.53 "HgN/A
4:20 AM50 °FOvercast.16 mph94%29.53 "HgN/A
3:50 AM50 °FOvercast.15 mph94%29.53 "HgN/A
3:20 AM50 °FSprinkles. Passing clouds.17 mph94%29.50 "HgN/A
2:50 AM50 °FPassing clouds.15 mph94%29.50 "HgN/A
2:20 AM50 °FSprinkles. Passing clouds.16 mph94%29.47 "HgN/A
1:50 AM50 °FPassing clouds.18 mph94%29.47 "HgN/A
1:20 AM50 °FPassing clouds.15 mph94%29.47 "HgN/A
12:50 AM50 °FPassing clouds.17 mph94%29.45 "HgN/A
12:20 AM50 °FPassing clouds.20 mph94%29.45 "HgN/A
11:50 PM
Sun, Sep 25
50 °FOvercast.13 mph94%29.45 "HgN/A
11:20 PM50 °FOvercast.15 mph94%29.42 "HgN/A
10:50 PM50 °FLow clouds.14 mph94%29.42 "HgN/A
10:20 PM50 °FPassing clouds.14 mph94%29.42 "HgN/A
9:50 PM50 °FLow clouds.16 mph94%29.39 "HgN/A
9:20 PM50 °FSprinkles. Passing clouds.18 mph94%29.36 "HgN/A
8:50 PM50 °FPassing clouds.17 mph94%29.36 "HgN/A
8:20 PM50 °FPassing clouds.12 mph94%29.33 "HgN/A
7:50 PM50 °FPartly cloudy.8 mph94%29.33 "HgN/A
7:20 PM50 °FPassing clouds.13 mph94%29.30 "HgN/A
6:50 PM50 °FPartly sunny.5 mph94%29.30 "HgN/A
6:20 PM50 °FSprinkles. Broken clouds.8 mph94%29.27 "HgN/A
5:50 PM50 °FRain showers. Partly sunny.8 mph94%29.27 "Hg3 mi
5:20 PM50 °FSprinkles. Partly sunny.8 mph100%29.27 "HgN/A
4:50 PM50 °FSprinkles. Partly sunny.15 mph94%29.27 "Hg4 mi
4:20 PM52 °FPartly sunny.17 mph88%29.27 "HgN/A
3:58 PM52 °FScattered showers. Broken clouds.18 mph88%29.27 "HgN/A
3:20 PM54 °FPartly sunny.18 mph82%29.27 "HgN/A
Weather by CustomWeather, © 2016

See weather overviewHow to use our weather pages